Flag for Brazil Weather past 2 weeks in Criciúma, Santa Catarina, Brazil

Now
82 °F

Passing clouds.


Feels Like: 85 °F
Forecast: N/A
Wind: 9 mph from Northeast

Location: Florianopolis Aeroporto

Current Time: Mar 3, 2015 at 6:18:34 PM

Latest Report: Mar 3, 2015 at 6:00 PM


Visibility: N/A

Pressure: 29.95 "Hg

Humidity: 58%

Dew point: 66 °F

Location of CriciúmaLocation

Historic Weather in Criciúma — Graph

°F

Criciúma temperature yesterday

Maximum temperature yesterday: 86 °F (at 1:00 PM)
Minimum temperature yesterday: 73 °F (at 6:00 AM)
Average temperature yesterday: 79 °F

Past Weeks' High & Low Weather Summary

 TemperatureHumidityPressure
High91 °F (Feb 25, 2:00 PM)100% (Feb 18, 5:00 AM)30.15 "Hg (Feb 18, 5:00 AM)
Low68 °F (Mar 1, 5:00 AM)41% (Feb 25, 2:00 PM)29.65 "Hg (Feb 19, 4:00 PM)
Average78 °F76%29.95 "Hg
* Reported Feb 16 5:00 PM — Mar 3 4:00 PM, Criciúma, Weather by CustomWeather, © 2015

Note: Actual official high and low records may vary slightly from our data, if they occured in-between our weather recording intervals... More about our weather records

Advertising

Criciúma weather history for previous 24 hours

 ConditionsComfort  
Time TempWeatherWind HumidityBarometerVisibility
4:00 PM
Tue, Mar 3
86 °FPassing clouds.13 mph52%29.95 "HgN/A
3:00 PM86 °FPassing clouds.14 mph55%29.95 "HgN/A
2:00 PM86 °FScattered clouds.15 mph52%29.98 "HgN/A
1:00 PM86 °FScattered clouds.14 mph55%29.98 "HgN/A
12:00 PM86 °FScattered clouds.22 mph52%30.01 "HgN/A
11:00 AM82 °FScattered clouds.12 mph62%30.01 "HgN/A
10:00 AM82 °FScattered clouds.13 mph66%30.04 "HgN/A
9:00 AM81 °FScattered clouds.9 mph70%30.04 "HgN/A
8:00 AM79 °FPassing clouds.7 mph74%30.01 "HgN/A
7:00 AM77 °FScattered clouds.6 mph79%30.01 "HgN/A
6:00 AM77 °FScattered clouds.6 mph79%29.98 "HgN/A
5:00 AM77 °FPassing clouds.6 mph79%29.98 "HgN/A
4:00 AM75 °FPassing clouds.7 mph83%29.98 "HgN/A
3:00 AM77 °FPassing clouds.6 mph79%29.98 "HgN/A
2:00 AM77 °FPassing clouds.3 mph79%30.04 "HgN/A
1:00 AM79 °FPassing clouds.5 mph70%30.01 "HgN/A
12:00 AM79 °FPassing clouds.3 mph70%30.04 "HgN/A
11:00 PM
Mon, Mar 2
79 °FPassing clouds.5 mph74%30.04 "HgN/A
10:00 PM79 °FPassing clouds.3 mph70%30.04 "HgN/A
9:00 PM79 °FPassing clouds.8 mph70%30.01 "HgN/A
8:00 PM79 °FPassing clouds.6 mph70%29.98 "HgN/A
7:00 PM81 °FPassing clouds.8 mph66%29.98 "HgN/A
6:00 PM81 °FPassing clouds.13 mph66%29.98 "HgN/A
Weather by CustomWeather, © 2015

See weather overviewHow to use our weather pages